Weather Roundup
Issued by NWS Springfield, MO

Home | Current Version | Previous Version | Text Only | Print | Product List | Glossary On
Versions: 1 2 3 4 5 6 7 8 9 10 11 12 13 14 15 16 17 18 19 20 21 22 23 24 25 26 27 28 29 30 31 32 33 34 35 36 37 38 39 40 41 42 43 44 45 46 47 48 49 50
000
NZUS99 KSGF 300707
HRRSGF

HOURLY WEATHER
NATIONAL WEATHER SERVICE SPRINGFIELD MO
200 AM CDT TUE MAY 30 2017

......SGF CWA......

CITY           SKY/WX    TMP DP  RH WIND       PRES   REMARKS
SPRINGFIELD    MOCLDY    62  57  83 CALM      30.05S
JOPLIN         CLEAR     60  58  92 CALM      30.06S
WEST PLAINS    PTCLDY    61  58  90 CALM      30.05S
ROLLA          PTCLDY    57  53  86 CALM      30.03R
OSAGE BEACH    PTCLDY    57  56  96 CALM      30.05R
BRANSON        PTCLDY    68  55  64 CALM      30.06F

......SURROUNDING SGF CWA......

CITY           SKY/WX    TMP DP  RH WIND       PRES   REMARKS
CHANUTE        CLEAR     57  53  86 CALM      30.06S
PARSONS        CLEAR     57  54  89 E3        30.07S
COFFEYVILLE    CLEAR     60  58  92 N3        30.05F
EMPORIA        CLEAR     60  51  72 NE3       30.09R
GROVE OK       CLEAR     63  61  94 CALM      30.07R
ROGERS AR      PTCLDY    66  57  72 SW6       30.08S
SILOAM SPRINGS PTCLDY    63  54  72 S3        30.07S
HARRISON AR    CLEAR     67  53  61 SW6       30.06F
NEAR YELLVILLE MOCLDY    66  57  72 N12G17    30.03R

......KANSAS AND MISSOURI......

CITY           SKY/WX    TMP DP  RH WIND       PRES   REMARKS
KANSAS CTY INT CLEAR     61  41  47 N5        30.07R
DOWNTOWN KC    CLEAR     61  49  64 CALM      30.06R
COLUMBIA       PTCLDY    61  53  75 NW6       30.04R
SEDALIA        PTCLDY    62  52  69 NW3       30.06R
ST JOSEPH      CLEAR     53  49  86 CALM      30.06S
ST LOUIS       MOCLDY    65  56  72 W3        30.01R
SPIRIT OF STL  PTCLDY    57  56  96 SW3       30.00S
KIRKSVILLE     PTCLDY    53  32  44 W5        30.04S
WICHITA        CLOUDY    62  54  74 CALM      30.07S
TOPEKA         PTCLDY    57  51  80 CALM      30.07S
OLATHE         PTCLDY    64  43  46 N6        30.07S

......TENNESSEE......

CITY           SKY/WX    TMP DP  RH WIND       PRES   REMARKS
MEMPHIS        CLEAR     69  67  93 CALM      30.04S
NASHVILLE      CLOUDY    67  65  93 S3        30.05R

......ARKANSAS.......

CITY           SKY/WX    TMP DP  RH WIND       PRES   REMARKS
FAYETTEVILLE   PTCLDY    60  59  96 S5        30.07F
FT SMITH       CLEAR     66  58  75 CALM      30.05S
LITTLE ROCK    CLEAR     65  64  97 SW5       30.05R

......OKLAHOMA.......

CITY           SKY/WX    TMP DP  RH WIND       PRES   REMARKS
TULSA          MOCLDY    73  60  63 SW3       30.03R
PONCA CITY     PTCLDY    63  52  67 CALM      30.06S
MCALESTER      CLEAR     63  59  87 CALM      30.08R
OKLAHOMA CITY  PTCLDY    63  54  72 S6        30.08S

......IOWA............

CITY           SKY/WX    TMP DP  RH WIND       PRES   REMARKS
DES MOINES     CLEAR     56  45  66 W5        30.01S
QUAD CITIES      N/A     57  46  66 MISG      29.95S

......ILLINOIS........

CITY           SKY/WX    TMP DP  RH WIND       PRES   REMARKS
QUINCY         CLOUDY    61  46  57 W5        30.00S
CHICAGO        PTCLDY    58  47  66 SW3       29.90S




USA.gov is the U.S. government's official web portal to all federal, state and local government web resources and services.